Zurück zum Katalog

NILESAT 301

AktivKommunikationGEO
NORAD 52817·PAYLOAD·🇪🇬 Egypt

Gestartet Jun 8, 2022 von Cape Canaveral Space Force Station

Loading…

TLE

AktuellSource: Space-Track

Epoche: Sep 14, 2026, 08:38 UTC

1 52817U 22061A   26257.35991840 -.00000066  00000-0  00000-0 0  9998
2 52817   0.0554   2.8209 0001300 141.1712 331.9128  1.00270551 15634

Verfolge NILESAT 301 in Echtzeit mit AllMySat

Download on the App Store